Weather History for Juliana Airport, St. Martin

Change the Weather History Date:

Friday, June 14, 2013

  Actual Average Record
Temperature  
Mean Temperature 84 °F -  
Max Temperature 87 °F 85 °F 91 °F (2001)
Min Temperature 81 °F 77 °F 75 °F (2003)
Cooling Degree Days 19    
Growing Degree Days 34 (Base 50)    
Moisture  
Dew Point 75 °F    
Average Humidity 73    
Maximum Humidity 79    
Minimum Humidity 60    
Precipitation  
Precipitation 0.00 in 0.09 in - ()
Sea Level Pressure  
Sea Level Pressure 30.02 in    
Wind  
Wind Speed 14 mph ()    
Max Wind Speed 18 mph    
Max Gust Speed -    
Visibility 6.8 miles    
Events Rain    
Averages and records for this station are not official NWS values.
T = Trace of Precipitation, MM = Missing Value Source: Averaged Metar Reports

Daily Weather History Graph

Daily Weather History Graph

Search for Another Location

Airport:

Trip Planner

Search our weather history database for the weather conditions in past years. The results will help you decide how hot, cold, wet, or windy it might be!

Date:

Astronomy

Jun. 14, 2013 Rise Set
Actual Time 5:36 AM AST 6:48 PM AST
Civil Twilight 5:12 AM AST 7:13 PM AST
Nautical Twilight 4:43 AM AST 7:41 PM AST
Astronomical Twilight 4:14 AM AST 8:11 PM AST
Moon 10:28 AM AST (6/14) 11:06 PM AST (6/14)
Length of Visible Light 14h 00m
Length of Day
13h 12m
Waxing Crescent, 30% of the Moon is Illuminated
Jun 14
Waxing Crescent
Jun 16
First Quarter
Jun 23
Full
Jun 30
Last Quarter
Jul 8
New

Hourly Weather History & Observations

Time (AST) Temp. Heat Index Dew Point Humidity Pressure Visibility Wind Dir Wind Speed Gust Speed Precip Events Conditions
12:00 AM 82.4 °F 89.5 °F 75.2 °F 79% 30.04 in 6.2 mi ESE 16.1 mph - N/A   Mostly Cloudy
1:00 AM 82.4 °F 89.5 °F 75.2 °F 79% 30.01 in 6.2 mi ESE 18.4 mph - N/A   Mostly Cloudy
2:00 AM 82 °F - 74 °F 72% 30.01 in 7 mi ESE 16.1 mph - - Rain Light Rain Showers
2:00 AM 82.4 °F 89.5 °F 75.2 °F 79% 30.01 in 6.2 mi ESE 16.1 mph - N/A Rain Light Rain Showers
3:00 AM 82.4 °F 89.5 °F 75.2 °F 79% 30.01 in 6.2 mi ESE 17.3 mph - N/A   Mostly Cloudy
4:00 AM 82.4 °F 89.5 °F 75.2 °F 79% 30.01 in 6.2 mi ESE 11.5 mph - N/A   Partly Cloudy
5:00 AM 82 °F - 74 °F 70% 30.01 in 9 mi ESE 15.0 mph - -   Partly Cloudy
5:00 AM 82.4 °F 88.2 °F 73.4 °F 74% 30.01 in 6.2 mi ESE 15.0 mph - N/A   Partly Cloudy
6:00 AM 82.4 °F 89.5 °F 75.2 °F 79% 30.01 in 6.2 mi ESE 12.7 mph - N/A   Scattered Clouds
7:00 AM 82.4 °F 89.5 °F 75.2 °F 79% 30.01 in 6.2 mi ESE 12.7 mph - N/A   Scattered Clouds
8:00 AM 83 °F - 75 °F 70% 30.04 in 9 mi ESE 11.5 mph - -   Partly Cloudy
8:00 AM 84.2 °F 92.3 °F 75.2 °F 74% 30.04 in 6.2 mi ESE 11.5 mph - N/A   Partly Cloudy
9:00 AM 84.2 °F 92.3 °F 75.2 °F 74% 30.04 in 6.2 mi ESE 18.4 mph - N/A   Partly Cloudy
10:00 AM 84.2 °F 90.9 °F 73.4 °F 70% 30.04 in 6.2 mi East 16.1 mph - N/A   Scattered Clouds
11:00 AM 86 °F - 74 °F 60% 30.05 in 9 mi East 12.7 mph - -   Partly Cloudy
11:00 AM 86.0 °F 95.1 °F 75.2 °F 70% 30.04 in 6.2 mi East 12.7 mph - N/A   Scattered Clouds
12:00 PM 86.0 °F 95.1 °F 75.2 °F 70% 30.04 in 6.2 mi East 15.0 mph - N/A   Scattered Clouds
1:00 PM 87.8 °F 97.6 °F 75.2 °F 66% 30.01 in 6.2 mi East 12.7 mph - N/A   Scattered Clouds
2:00 PM 86 °F - 75 °F 62% 30.01 in 9 mi East 16.1 mph - -   Partly Cloudy
2:00 PM 86.0 °F 95.1 °F 75.2 °F 70% 30.01 in 6.2 mi East 16.1 mph - N/A   Scattered Clouds
3:00 PM 86.0 °F 93.4 °F 73.4 °F 66% 29.98 in 6.2 mi East 17.3 mph - N/A   Partly Cloudy
4:00 PM 86.0 °F 93.4 °F 73.4 °F 66% 29.98 in 6.2 mi East 16.1 mph - N/A   Partly Cloudy
5:00 PM 84 °F - 74 °F 65% 29.99 in 9 mi East 15.0 mph - -   Scattered Clouds
5:00 PM 84.2 °F 90.9 °F 73.4 °F 70% 29.98 in 6.2 mi East 15.0 mph - N/A   Partly Cloudy
6:00 PM 84.2 °F 92.3 °F 75.2 °F 74% 30.01 in 6.2 mi East 15.0 mph - N/A   Scattered Clouds
7:00 PM 82.4 °F 89.5 °F 75.2 °F 79% 30.01 in 6.2 mi East 13.8 mph - N/A   Scattered Clouds
8:00 PM 83 °F - 75 °F 70% 30.04 in 9 mi East 11.5 mph - -   Partly Cloudy
8:00 PM 82.4 °F 89.5 °F 75.2 °F 79% 30.04 in 6.2 mi East 11.5 mph - N/A   Scattered Clouds
9:00 PM 82.4 °F 88.2 °F 73.4 °F 74% 30.04 in 6.2 mi East 12.7 mph - N/A   Partly Cloudy
10:00 PM 82.4 °F 88.2 °F 73.4 °F 74% 30.04 in 6.2 mi East 16.1 mph - N/A   Partly Cloudy
11:00 PM 82 °F - 74 °F 72% 30.06 in 9 mi ESE 17.3 mph - -   Partly Cloudy
11:00 PM 82.4 °F 89.5 °F 75.2 °F 79% 30.04 in 6.2 mi ESE 17.3 mph - N/A   Scattered Clouds